| time (UTC) | temp F | wind direction | speed MPH | gust MPH | rain 1hr in | rain 24hr in | rain mn in | humidity % | barometer mb |
| 20260506154610 | 56 | 79 | 0.0 | 3.0 | 0.00 | 0.00 | 0.00 | 69 | 1029.6 |
| 20260506153107 | 56 | 0 | 0.0 | 2.0 | 0.00 | 0.00 | 0.00 | 69 | 1029.5 |
| 20260506151558 | 56 | 0 | 0.0 | 3.0 | 0.00 | 0.00 | 0.00 | 70 | 1029.7 |
| 20260506144554 | 56 | 0 | 0.0 | 4.0 | 0.00 | 0.00 | 0.00 | 71 | 1029.6 |
| 20260506143103 | 56 | 0 | 0.0 | 1.0 | 0.00 | 0.00 | 0.00 | 72 | 1029.7 |
| 20260506141555 | 56 | 0 | 0.0 | 1.0 | 0.00 | 0.00 | 0.00 | 72 | 1029.7 |
| 20260506140057 | 56 | 0 | 0.0 | 1.0 | 0.00 | 0.00 | 0.00 | 73 | 1029.5 |
| 20260506134554 | 56 | 0 | 0.0 | 1.0 | 0.00 | 0.00 | 0.00 | 73 | 1029.5 |
| 20260506133057 | 57 | 0 | 0.0 | 2.0 | 0.00 | 0.00 | 0.00 | 72 | 1029.5 |
| 20260506131557 | 57 | 0 | 0.0 | 2.0 | 0.00 | 0.00 | 0.00 | 73 | 1029.4 |
| 20260506130053 | 57 | 0 | 0.0 | 1.0 | 0.00 | 0.00 | 0.00 | 74 | 1029.3 |
| 20260506124553 | 57 | 0 | 0.0 | 2.0 | 0.00 | 0.00 | 0.00 | 74 | 1029.0 |
| 20260506123052 | 56 | 0 | 0.0 | 1.0 | 0.00 | 0.00 | 0.00 | 76 | 1029.0 |
| 20260506121553 | 56 | 0 | 0.0 | 1.0 | 0.00 | 0.00 | 0.00 | 76 | 1028.9 |
| 20260506120058 | 57 | 0 | 0.0 | 0.0 | 0.00 | 0.00 | 0.00 | 76 | 1028.8 |
| 20260506114604 | 57 | 0 | 0.0 | 0.0 | 0.00 | 0.00 | 0.00 | 73 | 1028.7 |
| 20260506113053 | 58 | 0 | 0.0 | 0.0 | 0.00 | 0.00 | 0.00 | 72 | 1028.6 |
| 20260506111555 | 59 | 0 | 0.0 | 0.0 | 0.00 | 0.00 | 0.00 | 71 | 1028.5 |
| 20260506110101 | 60 | 0 | 0.0 | 0.0 | 0.00 | 0.00 | 0.00 | 69 | 1028.5 |
| 20260506104557 | 60 | 0 | 0.0 | 0.0 | 0.00 | 0.00 | 0.00 | 68 | 1028.5 |
| 20260506103052 | 61 | 0 | 0.0 | 0.0 | 0.00 | 0.00 | 0.00 | 66 | 1028.5 |
| 20260506101602 | 63 | 0 | 0.0 | 2.0 | 0.00 | 0.00 | 0.00 | 63 | 1028.3 |
| 20260506100057 | 64 | 0 | 0.0 | 3.0 | 0.00 | 0.00 | 0.00 | 60 | 1028.2 |
| 20260506094621 | 65 | 0 | 0.0 | 7.0 | 0.00 | 0.00 | 0.00 | 58 | 1028.1 |
| 20260506093055 | 66 | 88 | 1.0 | 7.0 | 0.00 | 0.00 | 0.00 | 57 | 1027.9 |
| 20260506091554 | 67 | 0 | 1.0 | 5.0 | 0.00 | 0.00 | 0.00 | 55 | 1027.8 |
| 20260506090053 | 68 | 104 | 1.0 | 6.0 | 0.00 | 0.00 | 0.00 | 55 | 1027.7 |
| 20260506084555 | 68 | 112 | 1.0 | 8.0 | 0.00 | 0.00 | 0.00 | 54 | 1027.7 |
| 20260506083059 | 69 | 111 | 1.0 | 6.0 | 0.00 | 0.00 | 0.00 | 53 | 1027.6 |
| 20260506081554 | 69 | 51 | 2.0 | 8.0 | 0.00 | 0.00 | 0.00 | 52 | 1027.6 |
| 20260506073053 | 71 | 102 | 1.0 | 10.0 | 0.00 | 0.00 | 0.00 | 50 | 1027.5 |
| 20260506071557 | 72 | 294 | 2.0 | 8.0 | 0.00 | 0.00 | 0.00 | 49 | 1027.4 |
| 20260506070103 | 73 | 181 | 1.0 | 8.0 | 0.00 | 0.00 | 0.00 | 49 | 1027.3 |
| 20260506061559 | 73 | 86 | 2.0 | 10.0 | 0.00 | 0.00 | 0.00 | 49 | 1027.2 |
| 20260506044557 | 72 | 68 | 0.0 | 9.0 | 0.00 | 0.00 | 0.00 | 53 | 1027.6 |
| 20260506043055 | 72 | 71 | 0.0 | 3.0 | 0.00 | 0.00 | 0.00 | 53 | 1027.8 |
| 20260506041556 | 71 | 78 | 1.0 | 6.0 | 0.00 | 0.00 | 0.00 | 55 | 1028.3 |
| 20260506034608 | 70 | 0 | 1.0 | 10.0 | 0.00 | 0.00 | 0.00 | 58 | 1028.6 |
| 20260506033059 | 68 | 74 | 1.0 | 8.0 | 0.00 | 0.00 | 0.00 | 61 | 1028.9 |
| 20260506031604 | 67 | 123 | 1.0 | 8.0 | 0.00 | 0.00 | 0.00 | 62 | 1029.0 |
| 20260506030054 | 66 | 126 | 2.0 | 9.0 | 0.00 | 0.00 | 0.00 | 63 | 1029.0 |
| 20260506024555 | 65 | 113 | 1.0 | 4.0 | 0.00 | 0.00 | 0.00 | 65 | 1029.1 |
| 20260506023058 | 64 | 114 | 2.0 | 9.0 | 0.00 | 0.00 | 0.00 | 66 | 1029.1 |
| 20260506021558 | 64 | 96 | 2.0 | 8.0 | 0.00 | 0.00 | 0.00 | 68 | 1029.2 |
| 20260506020100 | 63 | 106 | 2.0 | 8.0 | 0.00 | 0.00 | 0.00 | 67 | 1029.2 |
| 20260506014558 | 63 | 70 | 2.0 | 9.0 | 0.00 | 0.00 | 0.00 | 69 | 1029.2 |
| 20260506013053 | 62 | 119 | 1.0 | 7.0 | 0.00 | 0.00 | 0.00 | 70 | 1029.1 |
| 20260506011601 | 61 | 77 | 1.0 | 6.0 | 0.00 | 0.00 | 0.00 | 71 | 1029.2 |
| 20260506010059 | 60 | 159 | 2.0 | 6.0 | 0.00 | 0.00 | 0.00 | 72 | 1029.3 |
| 20260506004555 | 59 | 67 | 1.0 | 7.0 | 0.00 | 0.00 | 0.00 | 74 | 1029.2 |
| 20260506003057 | 58 | 0 | 1.0 | 7.0 | 0.00 | 0.00 | 0.00 | 75 | 1029.1 |
| 20260506001554 | 57 | 0 | 1.0 | 7.0 | 0.00 | 0.00 | 0.00 | 77 | 1028.9 |
| 20260506000053 | 56 | 86 | 1.0 | 9.0 | 0.00 | 0.00 | 0.00 | 78 | 1028.7 |
| 20260505234600 | 55 | 85 | 1.0 | 6.0 | 0.00 | 0.00 | 0.00 | 80 | 1028.4 |
| 20260505233108 | 54 | 72 | 1.0 | 6.0 | 0.00 | 0.00 | 0.00 | 81 | 1028.2 |
| 20260505231600 | 53 | 0 | 0.0 | 7.0 | 0.00 | 0.00 | 0.00 | 81 | 1028.0 |
| 20260505230057 | 54 | 83 | 0.0 | 6.0 | 0.00 | 0.00 | 0.00 | 81 | 1028.1 |
| 20260505224555 | 53 | 145 | 1.0 | 8.0 | 0.00 | 0.00 | 0.00 | 81 | 1028.0 |
| 20260505223057 | 53 | 78 | 1.0 | 4.0 | 0.00 | 0.00 | 0.00 | 80 | 1027.8 |
| 20260505221558 | 54 | 0 | 1.0 | 7.0 | 0.00 | 0.00 | 0.00 | 80 | 1027.7 |
| 20260505220057 | 54 | 98 | 1.0 | 4.0 | 0.00 | 0.00 | 0.00 | 79 | 1027.6 |
| 20260505214559 | 54 | 84 | 0.0 | 3.0 | 0.00 | 0.00 | 0.00 | 79 | 1027.3 |
| 20260505213102 | 54 | 0 | 0.0 | 4.0 | 0.00 | 0.00 | 0.00 | 79 | 1027.3 |
| 20260505211611 | 54 | 107 | 0.0 | 6.0 | 0.00 | 0.00 | 0.00 | 79 | 1027.1 |
| 20260505204600 | 54 | 93 | 1.0 | 6.0 | 0.00 | 0.00 | 0.00 | 79 | 1026.8 |
| 20260505203058 | 55 | 98 | 1.0 | 8.0 | 0.00 | 0.00 | 0.00 | 79 | 1026.9 |
| 20260505201600 | 54 | 98 | 1.0 | 6.0 | 0.00 | 0.00 | 0.00 | 80 | 1026.8 |
| 20260505200055 | 53 | 0 | 1.0 | 4.0 | 0.00 | 0.00 | 0.00 | 79 | 1026.9 |
| 20260505194607 | 53 | 84 | 0.0 | 6.0 | 0.00 | 0.00 | 0.00 | 79 | 1026.8 |
| 20260505193054 | 53 | 88 | 0.0 | 4.0 | 0.00 | 0.00 | 0.00 | 79 | 1027.0 |
| 20260505191556 | 53 | 75 | 0.0 | 3.0 | 0.00 | 0.00 | 0.00 | 78 | 1026.9 |
| 20260505190100 | 53 | 88 | 0.0 | 3.0 | 0.00 | 0.00 | 0.00 | 77 | 1026.8 |
| 20260505184553 | 54 | 86 | 0.0 | 3.0 | 0.00 | 0.00 | 0.00 | 76 | 1026.7 |
| 20260505183053 | 54 | 0 | 1.0 | 4.0 | 0.00 | 0.00 | 0.00 | 75 | 1026.8 |
| 20260505181557 | 54 | 0 | 1.0 | 4.0 | 0.00 | 0.00 | 0.00 | 74 | 1026.8 |
| 20260505180058 | 55 | 83 | 1.0 | 6.0 | 0.00 | 0.00 | 0.00 | 73 | 1026.7 |
| 20260505174608 | 56 | 0 | 1.0 | 4.0 | 0.00 | 0.00 | 0.00 | 72 | 1026.5 |
| 20260505173105 | 56 | 74 | 1.0 | 5.0 | 0.00 | 0.00 | 0.00 | 71 | 1026.6 |
| 20260505171605 | 56 | 84 | 1.0 | 4.0 | 0.00 | 0.00 | 0.00 | 71 | 1026.5 |
| 20260505170059 | 57 | 65 | 1.0 | 6.0 | 0.00 | 0.00 | 0.00 | 71 | 1026.4 |
| 20260505164622 | 57 | 0 | 1.0 | 8.0 | 0.00 | 0.00 | 0.00 | 72 | 1026.4 |
| 20260505163107 | 56 | 123 | 1.0 | 6.0 | 0.00 | 0.00 | 0.00 | 73 | 1026.3 |
| 20260505161616 | 56 | 0 | 0.0 | 2.0 | 0.00 | 0.00 | 0.00 | 74 | 1026.1 |